Location: Eckley Miners' Village
(40.9930°N, 75.8630°W)
Time: 10:02:50
(UTC-04:00)

Vanguard 1 Rocket - Pass Details

Date: 10 March 2026
Orbit: 654 x 4213 km, 34.3° (Epoch: 11 April)

Event Time Altitude Azimuth Distance (km) Brightness Sun altitude
Rises 12:31:07 0° 264° (W) 3,077 10.1 44.1°
Reaches altitude 10° 12:33:15 10° 256° (WSW) 2,290 9.6 44.2°
Maximum altitude 12:38:03 40° 187° (S) 1,411 10.4 44.4°
Drops below altitude 10° 12:45:44 10° 121° (ESE) 3,665 11.1 44.6°
Sets 12:50:05 0° 115° (ESE) 5,219 11.6 44.8°
